Time,TemperatureF,DewpointF,PressureIn,WindDirection,WindDirectionDegrees,WindSpeedMPH,WindSpeedGustMPH,Humidity,HourlyPrecipIn,Conditions,Clouds,dailyrainin,SoftwareType,DateUTC
2013-03-12 00:02:00,66.0,60.0,29.99,SE,127,0.0,2.0,82,0.00,,,0.00,,2013-03-12 04:02:00,
2013-03-12 00:13:00,66.0,60.0,29.99,SE,127,0.0,2.0,82,0.00,,,0.00,,2013-03-12 04:13:00,
2013-03-12 00:22:00,66.0,60.0,30.00,South,188,0.0,1.0,82,0.00,,,0.00,,2013-03-12 04:22:00,
2013-03-12 00:32:00,66.0,60.0,29.99,East,92,0.0,1.0,82,0.00,,,0.00,,2013-03-12 04:32:00,
2013-03-12 00:43:00,66.0,60.0,29.99,East,92,0.0,1.0,82,0.00,,,0.00,,2013-03-12 04:43:00,
2013-03-12 00:52:00,66.0,61.0,29.98,East,90,0.0,0.0,83,0.00,,,0.00,,2013-03-12 04:52:00,
2013-03-12 01:02:00,66.0,61.0,29.97,SE,141,0.0,2.0,84,0.00,,,0.00,,2013-03-12 05:02:00,
2013-03-12 01:12:00,66.0,61.0,29.97,SE,141,0.0,2.0,84,0.00,,,0.00,,2013-03-12 05:12:00,
2013-03-12 01:22:00,66.0,61.0,29.97,South,170,0.0,4.0,84,0.00,,,0.00,,2013-03-12 05:22:00,
2013-03-12 01:32:00,66.0,61.0,29.96,South,174,0.0,3.0,84,0.00,,,0.00,,2013-03-12 05:32:00,
2013-03-12 01:42:00,66.0,61.0,29.96,South,174,0.0,3.0,84,0.00,,,0.00,,2013-03-12 05:42:00,
2013-03-12 01:52:00,66.0,61.0,29.95,South,181,0.0,2.0,84,0.00,,,0.00,,2013-03-12 05:52:00,
2013-03-12 02:02:00,66.0,61.0,29.93,SW,228,0.0,3.0,84,0.00,,,0.00,,2013-03-12 06:02:00,
2013-03-12 02:12:00,66.0,61.0,29.93,SW,228,0.0,3.0,84,0.00,,,0.00,,2013-03-12 06:12:00,
2013-03-12 02:22:00,67.0,62.0,29.94,South,171,0.0,3.0,84,0.00,,,0.00,,2013-03-12 06:22:00,
2013-03-12 02:32:00,67.0,62.0,29.94,SE,140,1.0,4.0,84,0.00,,,0.00,,2013-03-12 06:32:00,
2013-03-12 02:42:00,67.0,62.0,29.94,SE,140,1.0,4.0,84,0.00,,,0.00,,2013-03-12 06:42:00,
2013-03-12 02:52:00,67.0,62.0,29.94,South,180,1.0,5.0,84,0.00,,,0.00,,2013-03-12 06:52:00,
2013-03-12 03:02:00,67.0,62.0,29.93,SE,137,0.0,8.0,84,0.00,,,0.00,,2013-03-12 07:02:00,
2013-03-12 03:12:00,67.0,62.0,29.93,SE,137,0.0,8.0,84,0.00,,,0.00,,2013-03-12 07:12:00,
2013-03-12 03:22:00,67.0,62.0,29.94,South,182,0.0,4.0,83,0.00,,,0.00,,2013-03-12 07:22:00,
2013-03-12 03:32:00,67.0,62.0,29.93,South,187,0.0,6.0,84,0.00,,,0.00,,2013-03-12 07:32:00,
2013-03-12 03:42:00,67.0,62.0,29.93,South,187,0.0,6.0,84,0.00,,,0.00,,2013-03-12 07:42:00,
2013-03-12 03:52:00,67.0,62.0,29.94,South,180,0.0,3.0,84,0.00,,,0.00,,2013-03-12 07:52:00,
2013-03-12 04:02:00,67.0,62.0,29.93,SSE,165,0.0,4.0,84,0.00,,,0.00,,2013-03-12 08:02:00,
2013-03-12 04:13:00,67.0,62.0,29.93,SSE,165,0.0,4.0,84,0.00,,,0.00,,2013-03-12 08:13:00,
2013-03-12 04:22:00,66.0,61.0,29.94,SSW,192,0.0,6.0,84,0.00,,,0.00,,2013-03-12 08:22:00,
2013-03-12 04:33:00,66.0,61.0,29.94,SSE,166,0.0,4.0,85,0.00,,,0.00,,2013-03-12 08:33:00,
2013-03-12 04:42:00,66.0,61.0,29.94,SSE,166,0.0,4.0,85,0.00,,,0.00,,2013-03-12 08:42:00,
2013-03-12 04:52:00,65.0,61.0,29.93,East,90,0.0,0.0,86,0.00,,,0.00,,2013-03-12 08:52:00,
2013-03-12 05:03:00,64.0,60.0,29.94,South,176,0.0,1.0,88,0.00,,,0.00,,2013-03-12 09:03:00,
2013-03-12 05:12:00,64.0,60.0,29.94,South,176,0.0,1.0,88,0.00,,,0.00,,2013-03-12 09:12:00,
2013-03-12 05:22:00,64.0,61.0,29.93,South,174,0.0,1.0,89,0.00,,,0.00,,2013-03-12 09:22:00,
2013-03-12 05:32:00,64.0,61.0,29.92,East,90,0.0,0.0,90,0.00,,,0.00,,2013-03-12 09:32:00,
2013-03-12 05:42:00,64.0,61.0,29.92,East,90,0.0,0.0,90,0.00,,,0.00,,2013-03-12 09:42:00,
2013-03-12 05:52:00,63.0,60.0,29.92,South,188,0.0,2.0,91,0.00,,,0.00,,2013-03-12 09:52:00,
2013-03-12 06:02:00,63.0,61.0,29.92,SSE,154,0.0,2.0,92,0.00,,,0.00,,2013-03-12 10:02:00,
2013-03-12 06:12:00,63.0,61.0,29.92,SSE,154,0.0,2.0,92,0.00,,,0.00,,2013-03-12 10:12:00,
2013-03-12 06:22:00,63.0,61.0,29.93,SW,225,0.0,3.0,92,0.00,,,0.00,,2013-03-12 10:22:00,
2013-03-12 06:32:00,64.0,61.0,29.93,SE,142,0.0,1.0,91,0.00,,,0.00,,2013-03-12 10:32:00,
2013-03-12 06:42:00,64.0,61.0,29.93,SE,142,0.0,1.0,91,0.00,,,0.00,,2013-03-12 10:42:00,
2013-03-12 06:53:00,64.0,61.0,29.91,ESE,121,0.0,4.0,90,0.00,,,0.00,,2013-03-12 10:53:00,
2013-03-12 07:02:00,65.0,62.0,29.91,SW,217,1.0,4.0,89,0.00,,,0.00,,2013-03-12 11:02:00,
2013-03-12 07:12:00,65.0,62.0,29.91,SW,217,1.0,4.0,89,0.00,,,0.00,,2013-03-12 11:12:00,
2013-03-12 07:22:00,65.0,62.0,29.94,SSE,161,0.0,4.0,90,0.00,,,0.00,,2013-03-12 11:22:00,
2013-03-12 07:32:00,65.0,62.0,29.93,South,169,0.0,2.0,90,0.00,,,0.00,,2013-03-12 11:32:00,
2013-03-12 07:42:00,65.0,62.0,29.93,South,169,0.0,2.0,90,0.00,,,0.00,,2013-03-12 11:42:00,
2013-03-12 07:52:00,65.0,62.0,29.92,SE,139,0.0,3.0,89,0.00,,,0.00,,2013-03-12 11:52:00,
2013-03-12 08:02:00,65.0,62.0,29.91,SE,136,1.0,3.0,89,0.00,,,0.00,,2013-03-12 12:02:00,
2013-03-12 08:12:00,65.0,62.0,29.91,SE,136,1.0,3.0,89,0.00,,,0.00,,2013-03-12 12:12:00,
2013-03-12 08:22:00,66.0,62.0,29.93,ESE,121,0.0,3.0,88,0.00,,,0.00,,2013-03-12 12:22:00,
2013-03-12 08:32:00,66.0,62.0,29.94,South,186,1.0,4.0,88,0.00,,,0.00,,2013-03-12 12:32:00,
2013-03-12 08:42:00,66.0,62.0,29.94,South,186,1.0,4.0,88,0.00,,,0.00,,2013-03-12 12:42:00,
2013-03-12 08:52:00,66.0,62.0,29.94,South,188,0.0,5.0,88,0.00,,,0.00,,2013-03-12 12:52:00,
2013-03-12 09:02:00,67.0,63.0,29.95,SSW,192,1.0,6.0,86,0.00,,,0.00,,2013-03-12 13:02:00,
2013-03-12 09:12:00,67.0,63.0,29.95,SSW,192,1.0,6.0,86,0.00,,,0.00,,2013-03-12 13:12:00,
2013-03-12 09:22:00,68.0,64.0,29.96,South,174,1.0,7.0,86,0.00,,,0.00,,2013-03-12 13:22:00,
2013-03-12 09:32:00,67.0,63.0,29.97,SSW,204,1.0,6.0,87,0.00,,,0.00,,2013-03-12 13:32:00,
2013-03-12 09:42:00,67.0,63.0,29.97,SSW,204,1.0,6.0,87,0.00,,,0.00,,2013-03-12 13:42:00,
2013-03-12 09:52:00,67.0,63.0,29.97,SSE,157,0.0,2.0,88,0.00,,,0.00,,2013-03-12 13:52:00,
2013-03-12 10:02:00,67.0,64.0,29.97,South,177,0.0,3.0,90,0.00,,,0.00,,2013-03-12 14:02:00,
2013-03-12 10:12:00,67.0,64.0,29.97,South,177,0.0,3.0,90,0.00,,,0.00,,2013-03-12 14:12:00,
2013-03-12 10:22:00,66.0,63.0,29.97,SSE,154,0.0,5.0,90,0.01,,,0.01,,2013-03-12 14:22:00,
2013-03-12 10:33:00,66.0,63.0,29.97,SSE,159,0.0,2.0,91,0.01,,,0.01,,2013-03-12 14:33:00,
2013-03-12 10:42:00,66.0,63.0,29.97,SSE,159,0.0,2.0,91,0.01,,,0.01,,2013-03-12 14:42:00,
2013-03-12 10:53:00,67.0,65.0,29.97,South,177,0.0,2.0,93,0.01,,,0.01,,2013-03-12 14:53:00,
2013-03-12 11:02:00,67.0,65.0,29.98,SE,141,0.0,3.0,93,0.01,,,0.01,,2013-03-12 15:02:00,
2013-03-12 11:13:00,67.0,65.0,29.98,SE,141,0.0,3.0,93,0.01,,,0.01,,2013-03-12 15:13:00,
2013-03-12 11:22:00,67.0,65.0,29.98,South,171,0.0,3.0,93,0.00,,,0.01,,2013-03-12 15:22:00,
2013-03-12 11:32:00,68.0,66.0,29.98,SSE,159,0.0,3.0,93,0.00,,,0.01,,2013-03-12 15:32:00,
2013-03-12 11:42:00,68.0,66.0,29.98,SSE,159,0.0,3.0,93,0.00,,,0.01,,2013-03-12 15:42:00,
2013-03-12 11:53:00,68.0,66.0,29.99,South,170,0.0,4.0,94,0.04,,,0.06,,2013-03-12 15:53:00,
2013-03-12 12:02:00,67.0,66.0,29.99,South,181,0.0,4.0,95,0.07,,,0.09,,2013-03-12 16:02:00,
2013-03-12 12:12:00,67.0,66.0,29.99,South,181,0.0,4.0,95,0.07,,,0.09,,2013-03-12 16:12:00,
2013-03-12 12:22:00,68.0,67.0,29.98,SSE,163,0.0,4.0,96,0.10,,,0.12,,2013-03-12 16:22:00,
2013-03-12 12:33:00,68.0,67.0,29.99,West,262,0.0,2.0,96,0.10,,,0.13,,2013-03-12 16:33:00,
2013-03-12 12:43:00,68.0,67.0,29.99,West,262,0.0,2.0,96,0.10,,,0.13,,2013-03-12 16:43:00,
2013-03-12 12:53:00,69.0,68.0,29.98,South,187,0.0,4.0,96,0.07,,,0.13,,2013-03-12 16:53:00,
2013-03-12 13:03:00,69.0,68.0,29.97,SSE,153,1.0,5.0,96,0.04,,,0.13,,2013-03-12 17:03:00,
2013-03-12 13:13:00,69.0,68.0,29.97,SSE,153,1.0,5.0,96,0.04,,,0.13,,2013-03-12 17:13:00,
2013-03-12 13:22:00,69.0,68.0,29.96,SSE,152,1.0,6.0,96,0.05,,,0.15,,2013-03-12 17:22:00,
2013-03-12 13:34:00,69.0,68.0,29.93,SSE,150,4.0,12.0,95,0.01,,,0.15,,2013-03-12 17:34:00,
2013-03-12 13:43:00,69.0,68.0,29.93,SSE,150,4.0,12.0,95,0.01,,,0.15,,2013-03-12 17:43:00,
2013-03-12 13:53:00,70.0,68.0,29.94,SW,229,2.0,5.0,95,0.02,,,0.16,,2013-03-12 17:53:00,
2013-03-12 14:03:00,70.0,68.0,29.95,SSW,202,1.0,5.0,95,0.02,,,0.16,,2013-03-12 18:03:00,
2013-03-12 14:13:00,71.0,69.0,29.94,WSW,253,1.0,3.0,93,0.01,,,0.16,,2013-03-12 18:13:00,
2013-03-12 14:23:00,71.0,69.0,29.94,WSW,253,1.0,3.0,93,0.01,,,0.16,,2013-03-12 18:23:00,
2013-03-12 14:33:00,72.0,69.0,29.93,SSW,192,2.0,7.0,91,0.01,,,0.16,,2013-03-12 18:33:00,
2013-03-12 14:42:00,72.0,69.0,29.93,SSW,192,2.0,7.0,91,0.01,,,0.16,,2013-03-12 18:42:00,
2013-03-12 14:53:00,74.0,70.0,29.92,South,190,1.0,7.0,87,0.00,,,0.16,,2013-03-12 18:53:00,
2013-03-12 15:03:00,75.0,69.0,29.92,SSW,198,2.0,9.0,82,0.00,,,0.16,,2013-03-12 19:03:00,
2013-03-12 15:13:00,75.0,69.0,29.92,SSW,198,2.0,9.0,82,0.00,,,0.16,,2013-03-12 19:13:00,
2013-03-12 15:23:00,75.0,68.0,29.91,SW,220,2.0,7.0,79,0.00,,,0.16,,2013-03-12 19:23:00,
2013-03-12 15:33:00,75.0,69.0,29.91,WSW,238,1.0,8.0,81,0.00,,,0.16,,2013-03-12 19:33:00,
2013-03-12 15:43:00,75.0,69.0,29.91,WSW,238,1.0,8.0,81,0.00,,,0.16,,2013-03-12 19:43:00,
2013-03-12 15:53:00,74.0,68.0,29.91,West,269,1.0,5.0,82,0.00,,,0.16,,2013-03-12 19:53:00,
2013-03-12 16:02:00,73.0,68.0,29.91,WSW,254,0.0,3.0,84,0.00,,,0.16,,2013-03-12 20:02:00,
2013-03-12 16:12:00,73.0,68.0,29.91,WSW,254,0.0,3.0,84,0.00,,,0.16,,2013-03-12 20:12:00,
2013-03-12 16:23:00,74.0,68.0,29.91,West,273,2.0,7.0,82,0.00,,,0.16,,2013-03-12 20:23:00,
2013-03-12 16:33:00,73.0,67.0,29.91,West,261,2.0,6.0,82,0.00,,,0.16,,2013-03-12 20:33:00,
2013-03-12 16:42:00,73.0,67.0,29.91,West,261,2.0,6.0,82,0.00,,,0.16,,2013-03-12 20:42:00,
2013-03-12 16:53:00,73.0,67.0,29.92,West,266,2.0,8.0,81,0.00,,,0.16,,2013-03-12 20:53:00,
2013-03-12 17:03:00,73.0,67.0,29.91,WNW,285,2.0,7.0,81,0.00,,,0.16,,2013-03-12 21:03:00,
2013-03-12 17:13:00,73.0,67.0,29.91,WNW,285,2.0,7.0,81,0.00,,,0.16,,2013-03-12 21:13:00,
2013-03-12 17:22:00,73.0,67.0,29.92,West,272,1.0,7.0,81,0.00,,,0.16,,2013-03-12 21:22:00,
2013-03-12 17:33:00,73.0,67.0,29.91,WNW,287,2.0,7.0,81,0.00,,,0.16,,2013-03-12 21:33:00,
2013-03-12 17:43:00,73.0,67.0,29.91,WNW,287,2.0,7.0,81,0.00,,,0.16,,2013-03-12 21:43:00,
2013-03-12 17:53:00,74.0,67.0,29.91,West,271,2.0,10.0,80,0.00,,,0.16,,2013-03-12 21:53:00,
2013-03-12 18:02:00,73.0,67.0,29.91,West,279,2.0,7.0,82,0.00,,,0.16,,2013-03-12 22:02:00,
2013-03-12 18:12:00,73.0,67.0,29.91,West,279,2.0,7.0,82,0.00,,,0.16,,2013-03-12 22:12:00,
2013-03-12 18:22:00,72.0,67.0,29.91,West,270,2.0,8.0,83,0.00,,,0.16,,2013-03-12 22:22:00,
2013-03-12 18:33:00,72.0,67.0,29.92,West,273,2.0,10.0,84,0.00,,,0.16,,2013-03-12 22:33:00,
2013-03-12 18:43:00,72.0,67.0,29.92,West,273,2.0,10.0,84,0.00,,,0.16,,2013-03-12 22:43:00,
2013-03-12 18:53:00,72.0,67.0,29.92,West,268,2.0,6.0,85,0.00,,,0.16,,2013-03-12 22:53:00,
2013-03-12 19:02:00,71.0,67.0,29.92,West,276,1.0,6.0,86,0.00,,,0.16,,2013-03-12 23:02:00,
2013-03-12 19:12:00,71.0,67.0,29.92,West,276,1.0,6.0,86,0.00,,,0.16,,2013-03-12 23:12:00,
2013-03-12 19:22:00,71.0,67.0,29.92,West,274,1.0,4.0,86,0.00,,,0.16,,2013-03-12 23:22:00,
2013-03-12 19:34:00,70.0,66.0,29.92,West,266,0.0,3.0,87,0.00,,,0.16,,2013-03-12 23:34:00,
2013-03-12 19:43:00,70.0,66.0,29.92,West,266,0.0,3.0,87,0.00,,,0.16,,2013-03-12 23:43:00,
2013-03-12 19:52:00,69.0,66.0,29.92,West,275,0.0,3.0,89,0.00,,,0.16,,2013-03-12 23:52:00,
2013-03-12 20:03:00,69.0,66.0,29.93,WNW,303,0.0,1.0,90,0.00,,,0.16,,2013-03-13 00:03:00,
2013-03-12 20:13:00,69.0,66.0,29.93,WNW,303,0.0,1.0,90,0.00,,,0.16,,2013-03-13 00:13:00,
2013-03-12 20:23:00,68.0,65.0,29.94,WNW,289,0.0,2.0,90,0.00,,,0.16,,2013-03-13 00:23:00,
2013-03-12 20:33:00,68.0,65.0,29.94,WNW,290,0.0,1.0,91,0.00,,,0.16,,2013-03-13 00:33:00,
2013-03-12 20:42:00,68.0,65.0,29.94,WNW,290,0.0,1.0,91,0.00,,,0.16,,2013-03-13 00:42:00,
2013-03-12 20:53:00,68.0,66.0,29.95,West,260,0.0,2.0,92,0.00,,,0.16,,2013-03-13 00:53:00,
2013-03-12 21:03:00,68.0,65.0,29.96,West,268,0.0,3.0,90,0.00,,,0.16,,2013-03-13 01:03:00,
2013-03-12 21:13:00,68.0,65.0,29.96,West,268,0.0,3.0,90,0.00,,,0.16,,2013-03-13 01:13:00,
2013-03-12 21:22:00,68.0,65.0,29.96,West,259,0.0,2.0,90,0.00,,,0.16,,2013-03-13 01:22:00,
2013-03-12 21:33:00,67.0,64.0,29.97,WNW,284,0.0,2.0,91,0.00,,,0.16,,2013-03-13 01:33:00,
2013-03-12 21:42:00,67.0,64.0,29.97,WNW,284,0.0,2.0,91,0.00,,,0.16,,2013-03-13 01:42:00,
2013-03-12 21:53:00,67.0,64.0,29.98,West,281,0.0,2.0,91,0.00,,,0.16,,2013-03-13 01:53:00,
2013-03-12 22:02:00,67.0,64.0,29.99,WNW,283,1.0,4.0,89,0.00,,,0.16,,2013-03-13 02:02:00,
2013-03-12 22:12:00,67.0,64.0,29.99,WNW,283,1.0,4.0,89,0.00,,,0.16,,2013-03-13 02:12:00,
2013-03-12 22:22:00,66.0,62.0,30.00,WNW,285,1.0,3.0,88,0.00,,,0.16,,2013-03-13 02:22:00,
2013-03-12 22:32:00,65.0,61.0,30.00,West,280,1.0,5.0,87,0.00,,,0.16,,2013-03-13 02:32:00,
2013-03-12 22:43:00,65.0,61.0,30.00,West,280,1.0,5.0,87,0.00,,,0.16,,2013-03-13 02:43:00,
2013-03-12 22:53:00,63.0,59.0,30.01,WNW,285,0.0,1.0,86,0.00,,,0.16,,2013-03-13 02:53:00,
2013-03-12 23:02:00,63.0,59.0,30.01,WSW,238,0.0,1.0,87,0.00,,,0.16,,2013-03-13 03:02:00,
2013-03-12 23:13:00,63.0,59.0,30.01,WSW,238,0.0,1.0,87,0.00,,,0.16,,2013-03-13 03:13:00,
2013-03-12 23:22:00,62.0,59.0,30.01,East,90,0.0,0.0,89,0.00,,,0.16,,2013-03-13 03:22:00,
2013-03-12 23:32:00,61.0,58.0,30.02,East,90,0.0,0.0,90,0.00,,,0.16,,2013-03-13 03:32:00,
2013-03-12 23:42:00,61.0,58.0,30.02,East,90,0.0,0.0,90,0.00,,,0.16,,2013-03-13 03:42:00,
2013-03-12 23:53:00,60.0,57.0,30.01,East,90,0.0,0.0,90,0.00,,,0.16,,2013-03-13 03:53:00,